Погода в Кудугу

Буркина-Фасо     12°15′14″N   2°21′31″W
темп.,
°C
ветер,
м/с
пор.,
м/с
влажн.,
%
обл.,
%
осадки,
мм/ч
давл.,
гПа
погр.,
м
9 августа, вт
вт900:00+27юз486948 0.0 1010362
03:00+24ююз248391 1.4 1010169
06:00+24ююз368484 1.4 1012289
09:00+25юз5883100 0.0 1013341
12:00+26юз467892 0.0 1012397
15:00+31юз325642 0.0 10101258
18:00+30зюз0163100 0.0 100933
21:00+23всв4589100 3.9 1012210
10 августа, ср
ср1000:00+24зюз3486100 4.1 1012200
03:00+23юз3490100 0.0 1011224
06:00+23ю369260 0.0 1012249
09:00+26ююз677729 0.0 1013688
12:00+30ююз565964 0.0 10111459
15:00+29юз456293 0.6 1009908
18:00+27ю467376 2.7 1009223
21:00+25ююз47835 1.3 1012195
11 августа, чт
чт1100:00+24ююз48865 1.4 1012239
03:00+24юз498768 0.0 1012264
06:00+23ююз49895 0.0 1013284
09:00+26юз68745 0.0 1014713
12:00+30юз665951 0.0 10121427
15:00+30юз4456100 0.1 10101458
18:00+28юз3469100 0.9 1010163
21:00+26юз487582 0.1 1011243
12 августа, пт
пт1200:00+25зюз497997 0.1 1012254
03:00+24зюз4118172 0.0 1011344
06:00+24зюз4118196 0.0 1012332
09:00+27зюз696895 0.0 1013617
12:00+21в101591100 15.0 1015682
15:00+22зсз2286100 8.7 1012259
18:00+22сз348868 8.7 1011265
21:00+22юз229070 0.0 101299
13 августа, сб
сб1300:00+22ююв1287100 0.0 101367
03:00+22зюз338898 0.0 1012123
06:00+22зюз1288100 0.0 101388
09:00+25ююз23739 0.0 1014462
12:00+29юз346257 0.0 10131298
15:00+29юз446164 0.1 10111214
18:00+28зюз346973 0.1 1011158
21:00+26ююз357952 0.2 1013145